Regional Weather Roundup
Issued by NWS

Home | Current Version | Previous Version | Text Only | Print | Product List | Glossary Off
Versions: 1 2 3 4 5 6 7 8 9 10 11 12 13 14 15 16 17 18 19 20 21 22 23 24 25 26 27 28 29 30 31 32 33 34 35 36 37 38 39 40 41 42 43 44 45 46 47 48 49 50

000
ASUS43 KOAX 010702
RWRNE

WEATHER ROUNDUP FOR NEBRASKA
NATIONAL WEATHER SERVICE OMAHA NE
200 AM CDT TUE SEP 01 2015

NOTES: SATELLITE DATA IS BEING USED TO AUGMENT CLOUD COVER ABOVE
       12000 FEET.
       "FAIR" INDICATES FEW OR NO CLOUDS BELOW 12,000 FEET WITH NO
       SIGNIFICANT WEATHER AND/OR OBSTRUCTIONS TO VISIBILITY.

  * THESE STATIONS DO NOT REPORT WEATHER SUCH AS RAIN...SNOW OR FOG.

NEZ001>004-019>022-054>056-010800-
NEBRASKA PANHANDLE

CITY           SKY/WX    TMP DP  RH WIND       PRES   REMARKS
SCOTTSBLUFF    PTCLDY    59  54  83 CALM      30.01R
ALLIANCE       MOCLDY    62  52  69 S7        30.00S
CHADRON        CLEAR     58  51  78 NE3       29.93S
KIMBALL        MOCLDY    59  55  88 SW9       30.06R
SIDNEY         MOCLDY    63  54  72 SW9       30.04F
$$

NEZ057>060-069>072-079>082-010800-
SOUTHWEST NEBRASKA

CITY           SKY/WX    TMP DP  RH WIND       PRES   REMARKS
NORTH PLATTE   CLOUDY    71  58  63 NE6       29.94F
IMPERIAL       CLOUDY    69  60  73 W12       29.98F
LEXINGTON      CLOUDY    69  62  78 SE5       29.92F
MC COOK        CLOUDY    77  53  43 S6        29.92R
OGALLALA       CLOUDY    70  60  69 SW9       29.99F
$$

NEZ005>010-023>029-035>040-094-010800-
NORTH CENTRAL NEBRASKA

CITY           SKY/WX    TMP DP  RH WIND       PRES   REMARKS
VALENTINE      CLOUDY    62  59  90 NW3       29.95S
AINSWORTH      MOCLDY    66  64  91 CALM      29.94F
BROKEN BOW     CLOUDY    73  66  78 SE5       29.92F
O`NEILL        MOCLDY    72  70  93 SE5       29.92S
ORD            PTCLDY    67  64  90 CALM      29.90F
THEDFORD       CLOUDY    69  65  86 CALM      29.97F
$$

NEZ041-046>049-061>064-073>077-083>087-010800-
SOUTH CENTRAL NEBRASKA

CITY           SKY/WX    TMP DP  RH WIND       PRES   REMARKS
GRAND ISLAND   CLEAR     68  64  87 S8        29.93R
AURORA         CLEAR     67  66  97 S6        29.93S
HASTINGS       CLEAR     71  62  73 S7        29.93R
HEBRON         CLEAR     73  63  72 S10       29.93S
HOLDREGE       PTCLDY    69  58  67 S6        29.93R
KEARNEY *      PTCLDY    73  57  56 S13       29.92S
YORK           CLEAR     68  66  94 S7        29.93S
$$

NEZ011>018-030>034-042>045-010800-
NORTHEAST NEBRASKA

CITY           SKY/WX    TMP DP  RH WIND       PRES   REMARKS
NORFOLK        CLEAR     68  67  96 E3        29.91S FOG
ALBION         CLEAR     69  67  93 CALM      29.93R FOG
BLAIR          FAIR      72  67  85 S8        29.93S
COLUMBUS *     CLEAR     66  61  82 CALM      29.92S
FREMONT        CLEAR     73  68  82 SE7       29.93R
TEKAMAH        FOG       65  65 100 S3        29.92R VSB 1
$$

NEZ050>053-065>068-078-088>093-010800-
SOUTHEAST NEBRASKA

CITY           SKY/WX    TMP DP  RH WIND       PRES   REMARKS
LINCOLN        CLEAR     70  67  90 S7        29.93S
OMAHA EPPLEY   CLEAR     74  70  87 S8        29.93S
BEATRICE       CLEAR     72  67  85 S7        29.94S
FALLS CITY     CLEAR     73  68  84 S7        29.95S
NEBRASKA CITY  CLEAR     72  67  85 S9        29.95S
PLATTSMOUTH    CLEAR     72  67  85 S9        29.94S
$$

NEZ044-045-051>053-067-010800-
OMAHA AREA

CITY           SKY/WX    TMP DP  RH WIND       PRES   REMARKS
EPPLEY FIELD   CLEAR     74  70  87 S8        29.93S
BLAIR          CLEAR     72  67  85 S8        29.93S
FREMONT        CLEAR     73  68  82 SE7       29.93R
MILLARD        CLEAR     73  69  88 CALM      29.93S
OFFUTT AFB     CLEAR     71  69  93 E6        29.92F
PLATTSMOUTH    CLEAR     72  67  85 S9        29.94S
WAHOO          FAIR      67  66  96 SE7       29.93R
$$


USA.gov is the U.S. government's official web portal to all federal, state and local government web resources and services.